Weather History for CYMX - December, 2012

Change the Weather History Date:

Tuesday, December 4, 2012

  Actual Average Record
Temperature  
Mean Temperature 38 °F -  
Max Temperature 46 °F - - ()
Min Temperature 33 °F - - ()
Degree Days  
Heating Degree Days 26    
Moisture  
Dew Point 37 °F    
Average Humidity 96    
Maximum Humidity 100    
Minimum Humidity 93    
Precipitation  
Precipitation 0.00 in - - ()
Sea Level Pressure  
Sea Level Pressure 30.00 in    
Wind  
Wind Speed 5 mph ()    
Max Wind Speed 9 mph    
Max Gust Speed -    
Visibility 3.5 miles    
Events Rain    
T = Trace of Precipitation, MM = Missing Value Source: Averaged Metar Reports

Daily Weather History Graph

Daily Weather History Graph

Search for Another Location

Airport or City:

Trip Planner

Search our weather history database for the weather conditions in past years. The results will help you decide how hot, cold, wet, or windy it might be!

Date:

Astronomy

Dec. 04, 2012 Rise Set
Actual Time 7:20 AM EST 4:12 PM EST
Civil Twilight 6:46 AM EST 4:46 PM EST
Nautical Twilight 6:09 AM EST 5:23 PM EST
Astronomical Twilight 5:33 AM EST 5:59 PM EST
Moon 10:09 PM EST (12/4) 11:02 AM EST (12/4)
Length of Visible Light 9h 59m
Length of Day
8h 52m
Waning Gibbous, 69% of the Moon is Illuminated
Dec 4
Waning Gibbous
Dec 6
Last Quarter
Dec 13
New
Dec 20
First Quarter
Dec 28
Full

Hourly Weather History & Observations

Time (EST) Temp. Windchill Dew Point Humidity Pressure Visibility Wind Dir Wind Speed Gust Speed Precip Events Conditions
12:00 AM 35.6 °F 31.7 °F 33.8 °F 93% 30.23 in 25.0 mi East 4.6 mph - N/A   Overcast
1:00 AM 33.8 °F - 32.0 °F 93% 30.22 in 25.0 mi NE 2.3 mph - N/A   Overcast
2:00 AM 33.8 °F 28.6 °F 32.0 °F 93% 30.19 in 25.0 mi NE 5.8 mph - N/A   Overcast
3:00 AM 33.8 °F 28.6 °F 32.0 °F 93% 30.17 in 25.0 mi NE 5.8 mph - N/A   Overcast
4:00 AM 35.6 °F 31.7 °F 33.8 °F 93% 30.15 in 25.0 mi NE 4.6 mph - N/A   Overcast
5:00 AM 35.6 °F 30.7 °F 33.8 °F 93% 30.13 in 25.0 mi NE 5.8 mph - N/A   Overcast
6:00 AM 35.6 °F 30.7 °F 33.8 °F 93% 30.10 in 25.0 mi NE 5.8 mph - N/A   Mostly Cloudy
7:00 AM 35.6 °F 30.7 °F 33.8 °F 93% 30.08 in 25.0 mi NE 5.8 mph - N/A   Overcast
7:12 AM 35.6 °F 29.9 °F 33.8 °F 93% 30.08 in 12.0 mi NE 6.9 mph - N/A   Overcast
7:26 AM 35.6 °F 30.7 °F 33.8 °F 93% 30.08 in 3.0 mi ENE 5.8 mph - N/A Rain Light Rain
7:48 AM 35.6 °F 30.7 °F 33.8 °F 93% 30.07 in 2.0 mi NE 5.8 mph - N/A Rain Light Rain
8:00 AM 35.6 °F 30.7 °F 33.8 °F 93% 30.06 in 2.0 mi NNE 5.8 mph - N/A Rain Light Rain
8:21 AM 35.6 °F 30.7 °F 33.8 °F 93% 30.06 in 2.0 mi NNE 5.8 mph - N/A Rain Light Rain
8:33 AM 35.6 °F 31.7 °F 33.8 °F 93% 30.06 in 3.0 mi NE 4.6 mph - N/A Rain Light Rain
8:47 AM 35.6 °F 29.9 °F 35.6 °F 100% 30.05 in 3.0 mi NE 6.9 mph - N/A Rain Light Rain
9:00 AM 35.6 °F 29.9 °F 35.6 °F 100% 30.05 in 3.0 mi NE 6.9 mph - N/A Rain Light Rain
9:37 AM 35.6 °F 30.7 °F 35.6 °F 100% 30.04 in 3.0 mi NE 5.8 mph - N/A   Overcast
10:00 AM 37.4 °F 32.1 °F 35.6 °F 93% 30.03 in 3.0 mi NNE 6.9 mph - N/A   Overcast
11:00 AM 37.4 °F 32.1 °F 37.4 °F 100% 30.00 in 3.0 mi NE 6.9 mph - N/A   Overcast
12:00 PM 39.2 °F 35.0 °F 37.4 °F 93% 29.96 in 3.0 mi NE 5.8 mph - N/A   Overcast
12:13 PM 39.2 °F 34.2 °F 39.2 °F 100% 29.95 in 3.0 mi NNE 6.9 mph - N/A   Overcast
1:00 PM 41.0 °F 36.4 °F 39.2 °F 93% 29.93 in 4.0 mi NE 6.9 mph - N/A   Overcast
2:00 PM 41.0 °F 38.0 °F 41.0 °F 100% 29.90 in 4.0 mi NE 4.6 mph - N/A   Overcast
3:00 PM 41.0 °F 36.4 °F 39.2 °F 93% 29.87 in 4.0 mi NE 6.9 mph - N/A   Mostly Cloudy
4:00 PM 41.0 °F 38.0 °F 39.2 °F 93% 29.86 in 4.0 mi NE 4.6 mph - N/A   Overcast
5:00 PM 41.0 °F 37.1 °F 41.0 °F 100% 29.85 in 6.0 mi NNE 5.8 mph - N/A Rain Light Rain
6:00 PM 42.8 °F 41.1 °F 42.8 °F 100% 29.85 in 4.0 mi NNW 3.5 mph - N/A Rain Light Rain
7:00 PM 42.8 °F - 42.8 °F 100% 29.83 in 3.0 mi Variable 2.3 mph - N/A Rain Light Rain
7:18 PM 42.8 °F - 42.8 °F 100% 29.83 in 1.5 mi NNW 2.3 mph - N/A Rain Light Rain
8:00 PM 42.8 °F - 42.8 °F 100% 29.85 in 1.5 mi Calm Calm - N/A Rain Light Rain
8:20 PM 42.8 °F - 42.8 °F 100% 29.84 in 2.0 mi Calm Calm - N/A Rain Light Rain
9:00 PM 44.6 °F 43.1 °F 44.6 °F 100% 29.83 in 3.0 mi South 3.5 mph - N/A Rain Light Rain
10:00 PM 44.6 °F 43.1 °F 44.6 °F 100% 29.85 in 4.0 mi West 3.5 mph - N/A Rain Light Rain
11:00 PM 46.4 °F 41.9 °F 46.4 °F 100% 29.84 in 5.0 mi SW 9.2 mph - N/A Rain Light Rain